Year,Month,Day,Hour,Minute,Value (Times are PST for temperature in C)
2014,05,21,00,00,13.20
2014,05,21,00,01,13.20
2014,05,21,00,02,13.10
2014,05,21,00,03,13.10
2014,05,21,00,04,13.10
2014,05,21,00,05,13.10
2014,05,21,00,06,13.10
2014,05,21,00,07,13.10
2014,05,21,00,08,13.10
2014,05,21,00,09,13.10
2014,05,21,00,10,13.10
2014,05,21,00,11,13.20
2014,05,21,00,12,13.20
2014,05,21,00,13,13.20
2014,05,21,00,14,13.20
2014,05,21,00,15,13.20
2014,05,21,00,16,13.30
2014,05,21,00,17,13.30
2014,05,21,00,18,13.30
2014,05,21,00,19,13.40
2014,05,21,00,20,13.40
2014,05,21,00,21,13.40
2014,05,21,00,22,13.40
2014,05,21,00,23,13.40
2014,05,21,00,24,13.40
2014,05,21,00,25,13.40
2014,05,21,00,26,13.40
2014,05,21,00,27,13.30
2014,05,21,00,28,13.30
2014,05,21,00,29,13.30
2014,05,21,00,30,13.30
2014,05,21,00,31,13.30
2014,05,21,00,32,13.20
2014,05,21,00,33,13.20
2014,05,21,00,34,13.20
2014,05,21,00,35,13.20
2014,05,21,00,36,13.20
2014,05,21,00,37,13.10
2014,05,21,00,38,13.10
2014,05,21,00,39,13.10
2014,05,21,00,40,13.10
2014,05,21,00,41,13.10
2014,05,21,00,42,13.10
2014,05,21,00,43,13.10
2014,05,21,00,44,13.10
2014,05,21,00,45,13.10
2014,05,21,00,46,13.10
2014,05,21,00,47,13.10
2014,05,21,00,48,13.10
2014,05,21,00,49,13.10
2014,05,21,00,50,13.10
2014,05,21,00,51,13.10
2014,05,21,00,52,13.00
2014,05,21,00,53,13.00
2014,05,21,00,54,13.00
2014,05,21,00,55,13.00
2014,05,21,00,56,13.00
2014,05,21,00,57,13.00
2014,05,21,00,58,13.00
2014,05,21,00,59,12.90
2014,05,21,01,00,12.90
2014,05,21,01,01,12.90
2014,05,21,01,02,12.90
2014,05,21,01,03,13.00
2014,05,21,01,04,13.00
2014,05,21,01,05,12.90
2014,05,21,01,06,12.90
2014,05,21,01,07,12.90
2014,05,21,01,08,13.00
2014,05,21,01,09,13.00
2014,05,21,01,10,13.10
2014,05,21,01,11,13.00
2014,05,21,01,12,13.00
2014,05,21,01,13,13.00
2014,05,21,01,14,12.90
2014,05,21,01,15,12.90
2014,05,21,01,16,13.00
2014,05,21,01,17,13.00
2014,05,21,01,18,13.10
2014,05,21,01,19,13.20
2014,05,21,01,20,13.30
2014,05,21,01,21,13.30
2014,05,21,01,22,13.30
2014,05,21,01,23,13.30
2014,05,21,01,24,13.30
2014,05,21,01,25,13.40
2014,05,21,01,26,13.40
2014,05,21,01,27,13.40
2014,05,21,01,28,13.40
2014,05,21,01,29,13.50
2014,05,21,01,30,13.50
2014,05,21,01,31,13.50
2014,05,21,01,32,13.50
2014,05,21,01,33,13.50
2014,05,21,01,34,13.50
2014,05,21,01,35,13.50
2014,05,21,01,36,13.40
2014,05,21,01,37,13.40
2014,05,21,01,38,13.40
2014,05,21,01,39,13.30
2014,05,21,01,40,13.20
2014,05,21,01,41,13.20
2014,05,21,01,42,13.10
2014,05,21,01,43,13.00
2014,05,21,01,44,12.90
2014,05,21,01,45,12.90
2014,05,21,01,46,12.90
2014,05,21,01,47,12.90
2014,05,21,01,48,12.90
2014,05,21,01,49,12.90
2014,05,21,01,50,12.90
2014,05,21,01,51,12.90
2014,05,21,01,52,12.80
2014,05,21,01,53,12.80
2014,05,21,01,54,12.80
2014,05,21,01,55,12.80
2014,05,21,01,56,12.80
2014,05,21,01,57,12.80
2014,05,21,01,58,12.80
2014,05,21,01,59,12.80
2014,05,21,02,00,12.80
2014,05,21,02,01,12.80
2014,05,21,02,02,12.80
2014,05,21,02,03,12.80
2014,05,21,02,04,12.80
2014,05,21,02,05,12.80
2014,05,21,02,06,12.70
2014,05,21,02,07,12.70
2014,05,21,02,08,12.60
2014,05,21,02,09,12.60
2014,05,21,02,10,12.60
2014,05,21,02,11,12.60
2014,05,21,02,12,12.60
2014,05,21,02,13,12.60
2014,05,21,02,14,12.60
2014,05,21,02,15,12.60
2014,05,21,02,16,12.60
2014,05,21,02,17,12.70
2014,05,21,02,18,12.70
2014,05,21,02,19,12.70
2014,05,21,02,20,12.60
2014,05,21,02,21,12.60
2014,05,21,02,22,12.60
2014,05,21,02,23,12.50
2014,05,21,02,24,12.50
2014,05,21,02,25,12.40
2014,05,21,02,26,12.40
2014,05,21,02,27,12.40
2014,05,21,02,28,12.30
2014,05,21,02,29,12.30
2014,05,21,02,30,12.30
2014,05,21,02,31,12.30
2014,05,21,02,32,12.20
2014,05,21,02,33,12.20
2014,05,21,02,34,12.10
2014,05,21,02,35,12.00
2014,05,21,02,36,11.90
2014,05,21,02,37,11.80
2014,05,21,02,38,11.80
2014,05,21,02,39,11.70
2014,05,21,02,40,11.70
2014,05,21,02,41,11.60
2014,05,21,02,42,11.60
2014,05,21,02,43,11.50
2014,05,21,02,44,11.50
2014,05,21,02,45,11.50
2014,05,21,02,46,11.50
2014,05,21,02,47,11.40
2014,05,21,02,48,11.40
2014,05,21,02,49,11.40
2014,05,21,02,50,11.40
2014,05,21,02,51,11.40
2014,05,21,02,52,11.40
2014,05,21,02,53,11.40
2014,05,21,02,54,11.40
2014,05,21,02,55,11.40
2014,05,21,02,56,11.40
2014,05,21,02,57,11.40
2014,05,21,02,58,11.40
2014,05,21,02,59,11.40
2014,05,21,03,00,11.40
2014,05,21,03,01,11.40
2014,05,21,03,02,11.40
2014,05,21,03,03,11.40
2014,05,21,03,04,11.40
2014,05,21,03,05,11.40
2014,05,21,03,06,11.50
2014,05,21,03,07,11.50
2014,05,21,03,08,11.60
2014,05,21,03,09,11.60
2014,05,21,03,10,11.60
2014,05,21,03,11,11.60
2014,05,21,03,12,11.60
2014,05,21,03,13,11.60
2014,05,21,03,14,11.60
2014,05,21,03,15,11.60
2014,05,21,03,16,11.60
2014,05,21,03,17,11.60
2014,05,21,03,18,11.60
2014,05,21,03,19,11.50
2014,05,21,03,20,11.50
2014,05,21,03,21,11.40
2014,05,21,03,22,11.40
2014,05,21,03,23,11.40
2014,05,21,03,24,11.30
2014,05,21,03,25,11.30
2014,05,21,03,26,11.30
2014,05,21,03,27,11.30
2014,05,21,03,28,11.30
2014,05,21,03,29,11.30
2014,05,21,03,30,11.30
2014,05,21,03,31,11.30
2014,05,21,03,32,11.30
2014,05,21,03,33,11.40
2014,05,21,03,34,11.40
2014,05,21,03,35,11.40
2014,05,21,03,36,11.40
2014,05,21,03,37,11.40
2014,05,21,03,38,11.40
2014,05,21,03,39,11.30
2014,05,21,03,40,11.30
2014,05,21,03,41,11.30
2014,05,21,03,42,11.30
2014,05,21,03,43,11.30
2014,05,21,03,44,11.30
2014,05,21,03,45,11.30
2014,05,21,03,46,11.30
2014,05,21,03,47,11.30
2014,05,21,03,48,11.30
2014,05,21,03,49,11.20
2014,05,21,03,50,11.20
2014,05,21,03,51,11.20
2014,05,21,03,52,11.20
2014,05,21,03,53,11.20
2014,05,21,03,54,11.20
2014,05,21,03,55,11.20
2014,05,21,03,56,11.10
2014,05,21,03,57,11.10
2014,05,21,03,58,11.10
2014,05,21,03,59,11.10
2014,05,21,04,00,11.10
2014,05,21,04,01,11.20
2014,05,21,04,02,11.20
2014,05,21,04,03,11.20
2014,05,21,04,04,11.20
2014,05,21,04,05,11.20
2014,05,21,04,06,11.20
2014,05,21,04,07,11.30
2014,05,21,04,08,11.30
2014,05,21,04,09,11.30
2014,05,21,04,10,11.30
2014,05,21,04,11,11.30
2014,05,21,04,12,11.20
2014,05,21,04,13,11.20
2014,05,21,04,14,11.20
2014,05,21,04,15,11.20
2014,05,21,04,16,11.20
2014,05,21,04,17,11.10
2014,05,21,04,18,11.10
2014,05,21,04,19,11.10
2014,05,21,04,20,11.10
2014,05,21,04,21,11.00
2014,05,21,04,22,11.00
2014,05,21,04,23,11.00
2014,05,21,04,24,11.00
2014,05,21,04,25,11.00
2014,05,21,04,26,11.00
2014,05,21,04,27,10.90
2014,05,21,04,28,10.90
2014,05,21,04,29,10.90
2014,05,21,04,30,10.90
2014,05,21,04,31,10.90
2014,05,21,04,32,10.90
2014,05,21,04,33,10.90
2014,05,21,04,34,10.90
2014,05,21,04,35,10.90
2014,05,21,04,36,10.90
2014,05,21,04,37,10.90
2014,05,21,04,38,10.90
2014,05,21,04,39,11.00
2014,05,21,04,40,11.00
2014,05,21,04,41,11.00
2014,05,21,04,42,11.00
2014,05,21,04,43,11.00
2014,05,21,04,44,11.10
2014,05,21,04,45,11.10
2014,05,21,04,46,11.10
2014,05,21,04,47,11.10
2014,05,21,04,48,11.10
2014,05,21,04,49,11.10
2014,05,21,04,50,11.20
2014,05,21,04,51,11.20
2014,05,21,04,52,11.20
2014,05,21,04,53,11.20
2014,05,21,04,54,11.30
2014,05,21,04,55,11.30
2014,05,21,04,56,11.30
2014,05,21,04,57,11.40
2014,05,21,04,58,11.40
2014,05,21,04,59,11.40
2014,05,21,05,00,11.40
2014,05,21,05,01,11.50
2014,05,21,05,02,11.50
2014,05,21,05,03,11.50
2014,05,21,05,04,11.50
2014,05,21,05,05,11.50
2014,05,21,05,06,11.50
2014,05,21,05,07,11.60
2014,05,21,05,08,11.50
2014,05,21,05,09,11.50
2014,05,21,05,10,11.50
2014,05,21,05,11,11.50
2014,05,21,05,12,11.50
2014,05,21,05,13,11.50
2014,05,21,05,14,11.40
2014,05,21,05,15,11.40
2014,05,21,05,16,11.40
2014,05,21,05,17,11.40
2014,05,21,05,18,11.30
2014,05,21,05,19,11.30
2014,05,21,05,20,11.30
2014,05,21,05,21,11.30
2014,05,21,05,22,11.40
2014,05,21,05,23,11.40
2014,05,21,05,24,11.40
2014,05,21,05,25,11.40
2014,05,21,05,26,11.40
2014,05,21,05,27,11.50
2014,05,21,05,28,11.50
2014,05,21,05,29,11.50
2014,05,21,05,30,11.50
2014,05,21,05,31,11.50
2014,05,21,05,32,11.50
2014,05,21,05,33,11.40
2014,05,21,05,34,11.40
2014,05,21,05,35,11.40
2014,05,21,05,36,11.40
2014,05,21,05,37,11.30
2014,05,21,05,38,11.30
2014,05,21,05,39,11.30
2014,05,21,05,40,11.30
2014,05,21,05,41,11.20
2014,05,21,05,42,11.30
2014,05,21,05,43,11.30
2014,05,21,05,44,11.30
2014,05,21,05,45,11.20
2014,05,21,05,46,11.20
2014,05,21,05,47,11.20
2014,05,21,05,48,11.20
2014,05,21,05,49,11.20
2014,05,21,05,50,11.20
2014,05,21,05,51,11.20
2014,05,21,05,52,11.20
2014,05,21,05,53,11.20
2014,05,21,05,54,11.20
2014,05,21,05,55,11.20
2014,05,21,05,56,11.20
2014,05,21,05,57,11.10
2014,05,21,05,58,11.10
2014,05,21,05,59,11.10
2014,05,21,06,00,11.10
2014,05,21,06,01,11.10
2014,05,21,06,02,11.10
2014,05,21,06,03,11.10
2014,05,21,06,04,11.10
2014,05,21,06,05,11.10
2014,05,21,06,06,11.10
2014,05,21,06,07,11.10
2014,05,21,06,08,11.10
2014,05,21,06,09,11.10
2014,05,21,06,10,11.10
2014,05,21,06,11,11.10
2014,05,21,06,12,11.10
2014,05,21,06,13,11.10
2014,05,21,06,14,11.20
2014,05,21,06,15,11.20
2014,05,21,06,16,11.20
2014,05,21,06,17,11.20
2014,05,21,06,18,11.20
2014,05,21,06,19,11.20
2014,05,21,06,20,11.20
2014,05,21,06,21,11.20
2014,05,21,06,22,11.20
2014,05,21,06,23,11.20
2014,05,21,06,24,11.20
2014,05,21,06,25,11.20
2014,05,21,06,26,11.20
2014,05,21,06,27,11.30
2014,05,21,06,28,11.30
2014,05,21,06,29,11.30
2014,05,21,06,30,11.30
2014,05,21,06,31,11.30
2014,05,21,06,32,11.30
2014,05,21,06,33,11.30
2014,05,21,06,34,11.30
2014,05,21,06,35,11.30
2014,05,21,06,36,11.30
2014,05,21,06,37,11.30
2014,05,21,06,38,11.30
2014,05,21,06,39,11.30
2014,05,21,06,40,11.40
2014,05,21,06,41,11.40
2014,05,21,06,42,11.40
2014,05,21,06,43,11.40
2014,05,21,06,44,11.40
2014,05,21,06,45,11.40
2014,05,21,06,46,11.50
2014,05,21,06,47,11.50
2014,05,21,06,48,11.50
2014,05,21,06,49,11.50
2014,05,21,06,50,11.60
2014,05,21,06,51,11.60
2014,05,21,06,52,11.60
2014,05,21,06,53,11.60
2014,05,21,06,54,11.70
2014,05,21,06,55,11.70
2014,05,21,06,56,11.80
2014,05,21,06,57,11.80
2014,05,21,06,58,11.80
2014,05,21,06,59,11.90
2014,05,21,07,00,11.90
2014,05,21,07,01,11.90
2014,05,21,07,02,12.00
2014,05,21,07,03,12.00
2014,05,21,07,04,12.00
2014,05,21,07,05,12.10
2014,05,21,07,06,12.10
2014,05,21,07,07,12.10
2014,05,21,07,08,12.20
2014,05,21,07,09,12.20
2014,05,21,07,10,12.20
2014,05,21,07,11,12.30
2014,05,21,07,12,12.30
2014,05,21,07,13,12.30
2014,05,21,07,14,12.30
2014,05,21,07,15,12.30
2014,05,21,07,16,12.30
2014,05,21,07,17,12.40
2014,05,21,07,18,12.40
2014,05,21,07,19,12.40
2014,05,21,07,20,12.40
2014,05,21,07,21,12.40
2014,05,21,07,22,12.50
2014,05,21,07,23,12.50
2014,05,21,07,24,12.50
2014,05,21,07,25,12.60
2014,05,21,07,26,12.60
2014,05,21,07,27,12.60
2014,05,21,07,28,12.70
2014,05,21,07,29,12.70
2014,05,21,07,30,12.70
2014,05,21,07,31,12.70
2014,05,21,07,32,12.70
2014,05,21,07,33,12.80
2014,05,21,07,34,12.80
2014,05,21,07,35,12.80
2014,05,21,07,36,12.80
2014,05,21,07,37,12.80
2014,05,21,07,38,12.80
2014,05,21,07,39,12.90
2014,05,21,07,40,12.90
2014,05,21,07,41,12.90
2014,05,21,07,42,12.90
2014,05,21,07,43,12.90
2014,05,21,07,44,13.00
2014,05,21,07,45,13.00
2014,05,21,07,46,13.00
2014,05,21,07,47,13.10
2014,05,21,07,48,13.10
2014,05,21,07,49,13.10
2014,05,21,07,50,13.10
2014,05,21,07,51,13.20
2014,05,21,07,52,13.20
2014,05,21,07,53,13.30
2014,05,21,07,54,13.30
2014,05,21,07,55,13.40
2014,05,21,07,56,13.50
2014,05,21,07,57,13.60
2014,05,21,07,58,13.60
2014,05,21,07,59,13.70
2014,05,21,08,00,13.80
2014,05,21,08,01,13.80
2014,05,21,08,02,13.80
2014,05,21,08,03,13.90
2014,05,21,08,04,13.90
2014,05,21,08,05,14.00
2014,05,21,08,06,14.10
2014,05,21,08,07,14.10
2014,05,21,08,08,14.20
2014,05,21,08,09,14.20
2014,05,21,08,10,14.30
2014,05,21,08,11,14.30
2014,05,21,08,12,14.40
2014,05,21,08,13,14.40
2014,05,21,08,14,14.40
2014,05,21,08,15,14.40
2014,05,21,08,16,14.40
2014,05,21,08,17,14.30
2014,05,21,08,18,14.30
2014,05,21,08,19,14.30
2014,05,21,08,20,14.30
2014,05,21,08,21,14.30
2014,05,21,08,22,14.30
2014,05,21,08,23,14.20
2014,05,21,08,24,14.20
2014,05,21,08,25,14.20
2014,05,21,08,26,14.10
2014,05,21,08,27,14.10
2014,05,21,08,28,14.00
2014,05,21,08,29,14.00
2014,05,21,08,30,14.00
2014,05,21,08,31,13.90
2014,05,21,08,32,14.00
2014,05,21,08,33,14.00
2014,05,21,08,34,14.10
2014,05,21,08,35,14.10
2014,05,21,08,36,14.10
2014,05,21,08,37,14.10
2014,05,21,08,38,14.10
2014,05,21,08,39,14.10
2014,05,21,08,40,14.10
2014,05,21,08,41,14.10
2014,05,21,08,42,14.10
2014,05,21,08,43,14.10
2014,05,21,08,44,14.10
2014,05,21,08,45,14.10
2014,05,21,08,46,14.20
2014,05,21,08,47,14.20
2014,05,21,08,48,14.20
2014,05,21,08,49,14.30
2014,05,21,08,50,14.30
2014,05,21,08,51,14.30
2014,05,21,08,52,14.40
2014,05,21,08,53,14.40
2014,05,21,08,54,14.40
2014,05,21,08,55,14.50
2014,05,21,08,56,14.60
2014,05,21,08,57,14.70
2014,05,21,08,58,14.80
2014,05,21,08,59,14.90
2014,05,21,09,00,15.00
2014,05,21,09,01,15.00
2014,05,21,09,02,15.00
2014,05,21,09,03,15.10
2014,05,21,09,04,15.20
2014,05,21,09,05,15.20
2014,05,21,09,06,15.10
2014,05,21,09,07,15.00
2014,05,21,09,08,15.00
2014,05,21,09,09,15.00
2014,05,21,09,10,15.00
2014,05,21,09,11,15.00
2014,05,21,09,12,15.00
2014,05,21,09,13,14.90
2014,05,21,09,14,14.90
2014,05,21,09,15,14.90
2014,05,21,09,16,15.00
2014,05,21,09,17,15.00
2014,05,21,09,18,15.00
2014,05,21,09,19,15.00
2014,05,21,09,20,15.00
2014,05,21,09,21,15.00
2014,05,21,09,22,15.00
2014,05,21,09,23,15.00
2014,05,21,09,24,15.00
2014,05,21,09,25,15.00
2014,05,21,09,26,15.00
2014,05,21,09,27,15.00
2014,05,21,09,28,15.10
2014,05,21,09,29,15.10
2014,05,21,09,30,15.20
2014,05,21,09,31,15.30
2014,05,21,09,32,15.30
2014,05,21,09,33,15.40
2014,05,21,09,34,15.40
2014,05,21,09,35,15.40
2014,05,21,09,36,15.40
2014,05,21,09,37,15.40
2014,05,21,09,38,15.40
2014,05,21,09,39,15.30
2014,05,21,09,40,15.30
2014,05,21,09,41,15.30
2014,05,21,09,42,15.20
2014,05,21,09,43,15.10
2014,05,21,09,44,15.00
2014,05,21,09,45,15.00
2014,05,21,09,46,15.00
2014,05,21,09,47,15.00
2014,05,21,09,48,15.10
2014,05,21,09,49,15.20
2014,05,21,09,50,15.20
2014,05,21,09,51,15.30
2014,05,21,09,52,15.30
2014,05,21,09,53,15.40
2014,05,21,09,54,15.50
2014,05,21,09,55,15.60
2014,05,21,09,56,15.70
2014,05,21,09,57,15.80
2014,05,21,09,58,15.80
2014,05,21,09,59,16.00
2014,05,21,10,00,16.00
2014,05,21,10,01,16.10
2014,05,21,10,02,16.20
2014,05,21,10,03,16.20
2014,05,21,10,04,16.30
2014,05,21,10,05,16.30
2014,05,21,10,06,16.40
2014,05,21,10,07,16.40
2014,05,21,10,08,16.40
2014,05,21,10,09,16.40
2014,05,21,10,10,16.40
2014,05,21,10,11,16.40
2014,05,21,10,12,16.30
2014,05,21,10,13,16.30
2014,05,21,10,14,16.30
2014,05,21,10,15,16.30
2014,05,21,10,16,16.30
2014,05,21,10,17,16.30
2014,05,21,10,18,16.30
2014,05,21,10,19,16.30
2014,05,21,10,20,16.30
2014,05,21,10,21,16.40
2014,05,21,10,22,16.40
2014,05,21,10,23,16.50
2014,05,21,10,24,16.60
2014,05,21,10,25,16.60
2014,05,21,10,26,16.60
2014,05,21,10,27,16.60
2014,05,21,10,28,16.70
2014,05,21,10,29,16.70
2014,05,21,10,30,16.80
2014,05,21,10,31,16.80
2014,05,21,10,32,16.80
2014,05,21,10,33,16.90
2014,05,21,10,34,16.90
2014,05,21,10,35,16.90
2014,05,21,10,36,16.90
2014,05,21,10,37,16.90
2014,05,21,10,38,16.90
2014,05,21,10,39,16.80
2014,05,21,10,40,16.80
2014,05,21,10,41,16.90
2014,05,21,10,42,16.90
2014,05,21,10,43,16.90
2014,05,21,10,44,16.90
2014,05,21,10,45,16.70
2014,05,21,10,46,16.50
2014,05,21,10,47,16.40
2014,05,21,10,48,16.30
2014,05,21,10,49,16.30
2014,05,21,10,50,16.40
2014,05,21,10,51,16.40
2014,05,21,10,52,16.40
2014,05,21,10,53,16.50
2014,05,21,10,54,16.60
2014,05,21,10,55,16.60
2014,05,21,10,56,16.60
2014,05,21,10,57,16.70
2014,05,21,10,58,16.80
2014,05,21,10,59,16.80
2014,05,21,11,00,16.80
2014,05,21,11,01,16.70
2014,05,21,11,02,16.60
2014,05,21,11,03,16.60
2014,05,21,11,04,16.70
2014,05,21,11,05,16.70
2014,05,21,11,06,16.80
2014,05,21,11,07,16.90
2014,05,21,11,08,17.00
2014,05,21,11,09,17.10
2014,05,21,11,10,17.20
2014,05,21,11,11,17.30
2014,05,21,11,12,17.40
2014,05,21,11,13,17.40
2014,05,21,11,14,17.40
2014,05,21,11,15,17.40
2014,05,21,11,16,17.30
2014,05,21,11,17,17.20
2014,05,21,11,18,17.20
2014,05,21,11,19,17.20
2014,05,21,11,20,17.20
2014,05,21,11,21,17.20
2014,05,21,11,22,17.20
2014,05,21,11,23,17.20
2014,05,21,11,24,17.10
2014,05,21,11,25,17.10
2014,05,21,11,26,17.00
2014,05,21,11,27,17.00
2014,05,21,11,28,17.00
2014,05,21,11,29,17.00
2014,05,21,11,30,16.90
2014,05,21,11,31,16.80
2014,05,21,11,32,16.60
2014,05,21,11,33,16.50
2014,05,21,11,34,16.40
2014,05,21,11,35,16.40
2014,05,21,11,36,16.40
2014,05,21,11,37,16.40
2014,05,21,11,38,16.40
2014,05,21,11,39,16.40
2014,05,21,11,40,16.40
2014,05,21,11,41,16.50
2014,05,21,11,42,16.50
2014,05,21,11,43,16.60
2014,05,21,11,44,16.60
2014,05,21,11,45,16.50
2014,05,21,11,46,16.50
2014,05,21,11,47,16.50
2014,05,21,11,48,16.50
2014,05,21,11,49,16.60
2014,05,21,11,50,16.70
2014,05,21,11,51,16.70
2014,05,21,11,52,16.70
2014,05,21,11,53,16.80
2014,05,21,11,54,16.80
2014,05,21,11,55,16.90
2014,05,21,11,56,16.90
2014,05,21,11,57,16.90
2014,05,21,11,58,16.90
2014,05,21,11,59,16.90
2014,05,21,12,00,17.00
2014,05,21,12,01,17.00
2014,05,21,12,02,17.00
2014,05,21,12,03,17.00
2014,05,21,12,04,17.10
2014,05,21,12,05,17.10
2014,05,21,12,06,17.20
2014,05,21,12,07,17.20
2014,05,21,12,08,17.20
2014,05,21,12,09,17.10
2014,05,21,12,10,17.10
2014,05,21,12,11,17.10
2014,05,21,12,12,17.10
2014,05,21,12,13,17.10
2014,05,21,12,14,17.10
2014,05,21,12,15,17.00
2014,05,21,12,16,16.90
2014,05,21,12,17,16.90
2014,05,21,12,18,16.80
2014,05,21,12,19,16.80
2014,05,21,12,20,16.80
2014,05,21,12,21,16.90
2014,05,21,12,22,16.90
2014,05,21,12,23,16.90
2014,05,21,12,24,16.80
2014,05,21,12,25,16.80
2014,05,21,12,26,16.90
2014,05,21,12,27,16.80
2014,05,21,12,28,16.80
2014,05,21,12,29,16.80
2014,05,21,12,30,16.80
2014,05,21,12,31,16.80
2014,05,21,12,32,16.80
2014,05,21,12,33,16.90
2014,05,21,12,34,17.00
2014,05,21,12,35,17.10
2014,05,21,12,36,17.20
2014,05,21,12,37,17.20
2014,05,21,12,38,17.40
2014,05,21,12,39,17.50
2014,05,21,12,40,17.60
2014,05,21,12,41,17.60
2014,05,21,12,42,17.60
2014,05,21,12,43,17.60
2014,05,21,12,44,17.60
2014,05,21,12,45,17.60
2014,05,21,12,46,17.60
2014,05,21,12,47,17.70
2014,05,21,12,48,17.60
2014,05,21,12,49,17.60
2014,05,21,12,50,17.50
2014,05,21,12,51,17.30
2014,05,21,12,52,17.30
2014,05,21,12,53,17.30
2014,05,21,12,54,17.30
2014,05,21,12,55,17.40
2014,05,21,12,56,17.40
2014,05,21,12,57,17.40
2014,05,21,12,58,17.40
2014,05,21,12,59,17.30
2014,05,21,13,00,17.30
2014,05,21,13,01,17.20
2014,05,21,13,02,17.10
2014,05,21,13,03,16.90
2014,05,21,13,04,17.00
2014,05,21,13,05,17.00
2014,05,21,13,06,17.10
2014,05,21,13,07,17.10
2014,05,21,13,08,17.20
2014,05,21,13,09,17.20
2014,05,21,13,10,17.30
2014,05,21,13,11,17.30
2014,05,21,13,12,17.30
2014,05,21,13,13,17.30
2014,05,21,13,14,17.30
2014,05,21,13,15,17.30
2014,05,21,13,16,17.30
2014,05,21,13,17,17.30
2014,05,21,13,18,17.30
2014,05,21,13,19,17.30
2014,05,21,13,20,17.40
2014,05,21,13,21,17.50
2014,05,21,13,22,17.60
2014,05,21,13,23,17.60
2014,05,21,13,24,17.70
2014,05,21,13,25,17.70
2014,05,21,13,26,17.80
2014,05,21,13,27,17.70
2014,05,21,13,28,17.80
2014,05,21,13,29,17.80
2014,05,21,13,30,17.80
2014,05,21,13,31,17.80
2014,05,21,13,32,17.80
2014,05,21,13,33,17.70
2014,05,21,13,34,17.70
2014,05,21,13,35,17.70
2014,05,21,13,36,17.70
2014,05,21,13,37,17.70
2014,05,21,13,38,17.70
2014,05,21,13,39,17.70
2014,05,21,13,40,17.70
2014,05,21,13,41,17.70
2014,05,21,13,42,17.70
2014,05,21,13,43,17.70
2014,05,21,13,44,17.70
2014,05,21,13,45,17.50
2014,05,21,13,46,17.60
2014,05,21,13,47,17.60
2014,05,21,13,48,17.60
2014,05,21,13,49,17.70
2014,05,21,13,50,17.70
2014,05,21,13,51,17.80
2014,05,21,13,52,17.80
2014,05,21,13,53,17.80
2014,05,21,13,54,17.80
2014,05,21,13,55,17.90
2014,05,21,13,56,17.90
2014,05,21,13,57,17.90
2014,05,21,13,58,18.00
2014,05,21,13,59,18.00
2014,05,21,14,00,18.00
2014,05,21,14,01,18.10
2014,05,21,14,02,18.10
2014,05,21,14,03,18.10
2014,05,21,14,04,18.10
2014,05,21,14,05,18.10
2014,05,21,14,06,18.10
2014,05,21,14,07,18.10
2014,05,21,14,08,18.10
2014,05,21,14,09,18.10
2014,05,21,14,10,18.10
2014,05,21,14,11,18.20
2014,05,21,14,12,18.20
2014,05,21,14,13,18.20
2014,05,21,14,14,18.20
2014,05,21,14,15,18.20
2014,05,21,14,16,18.20
2014,05,21,14,17,18.20
2014,05,21,14,18,18.30
2014,05,21,14,19,18.30
2014,05,21,14,20,18.30
2014,05,21,14,21,18.30
2014,05,21,14,22,18.30
2014,05,21,14,23,18.30
2014,05,21,14,24,18.20
2014,05,21,14,25,18.20
2014,05,21,14,26,18.10
2014,05,21,14,27,18.00
2014,05,21,14,28,17.80
2014,05,21,14,29,17.70
2014,05,21,14,30,17.50
2014,05,21,14,31,17.40
2014,05,21,14,32,17.30
2014,05,21,14,33,17.30
2014,05,21,14,34,17.20
2014,05,21,14,35,17.20
2014,05,21,14,36,17.20
2014,05,21,14,37,17.20
2014,05,21,14,38,17.10
2014,05,21,14,39,17.00
2014,05,21,14,40,16.90
2014,05,21,14,41,16.90
2014,05,21,14,42,17.00
2014,05,21,14,43,17.10
2014,05,21,14,44,17.20
2014,05,21,14,45,17.30
2014,05,21,14,46,17.40
2014,05,21,14,47,17.50
2014,05,21,14,48,17.60
2014,05,21,14,49,17.70
2014,05,21,14,50,17.80
2014,05,21,14,51,17.90
2014,05,21,14,52,17.90
2014,05,21,14,53,18.00
2014,05,21,14,54,18.10
2014,05,21,14,55,18.00
2014,05,21,14,56,18.10
2014,05,21,14,57,18.10
2014,05,21,14,58,18.20
2014,05,21,14,59,18.20
2014,05,21,15,00,18.20
2014,05,21,15,01,18.30
2014,05,21,15,02,18.30
2014,05,21,15,03,18.30
2014,05,21,15,04,18.30
2014,05,21,15,05,18.30
2014,05,21,15,06,18.40
2014,05,21,15,07,18.40
2014,05,21,15,08,18.30
2014,05,21,15,09,18.30
2014,05,21,15,10,18.30
2014,05,21,15,11,18.30
2014,05,21,15,12,18.30
2014,05,21,15,13,18.40
2014,05,21,15,14,18.50
2014,05,21,15,15,18.60
2014,05,21,15,16,18.70
2014,05,21,15,17,18.80
2014,05,21,15,18,18.80
2014,05,21,15,19,18.80
2014,05,21,15,20,18.60
2014,05,21,15,21,18.60
2014,05,21,15,22,18.50
2014,05,21,15,23,18.50
2014,05,21,15,24,18.50
2014,05,21,15,25,18.40
2014,05,21,15,26,18.40
2014,05,21,15,27,18.40
2014,05,21,15,28,18.30
2014,05,21,15,29,18.30
2014,05,21,15,30,18.30
2014,05,21,15,31,18.30
2014,05,21,15,32,18.40
2014,05,21,15,33,18.50
2014,05,21,15,34,18.50
2014,05,21,15,35,18.50
2014,05,21,15,36,18.60
2014,05,21,15,37,18.70
2014,05,21,15,38,18.70
2014,05,21,15,39,18.80
2014,05,21,15,40,18.80
2014,05,21,15,41,18.90
2014,05,21,15,42,19.00
2014,05,21,15,43,19.10
2014,05,21,15,44,19.10
2014,05,21,15,45,19.20
2014,05,21,15,46,19.20
2014,05,21,15,47,19.20
2014,05,21,15,48,19.20
2014,05,21,15,49,19.10
2014,05,21,15,50,19.10
2014,05,21,15,51,19.00
2014,05,21,15,52,18.90
2014,05,21,15,53,19.00
2014,05,21,15,54,19.00
2014,05,21,15,55,19.00
2014,05,21,15,56,18.90
2014,05,21,15,57,18.80
2014,05,21,15,58,18.60
2014,05,21,15,59,18.50
2014,05,21,16,00,18.30
2014,05,21,16,01,18.30
2014,05,21,16,02,18.30
2014,05,21,16,03,18.30
2014,05,21,16,04,18.30
2014,05,21,16,05,18.30
2014,05,21,16,06,18.20
2014,05,21,16,07,18.10
2014,05,21,16,08,18.00
2014,05,21,16,09,18.00
2014,05,21,16,10,18.00
2014,05,21,16,11,18.00
2014,05,21,16,12,18.00
2014,05,21,16,13,18.00
2014,05,21,16,14,18.00
2014,05,21,16,15,18.00
2014,05,21,16,16,17.90
2014,05,21,16,17,17.90
2014,05,21,16,18,17.80
2014,05,21,16,19,17.80
2014,05,21,16,20,17.80
2014,05,21,16,21,17.80
2014,05,21,16,22,17.80
2014,05,21,16,23,17.90
2014,05,21,16,24,18.00
2014,05,21,16,25,18.00
2014,05,21,16,26,18.00
2014,05,21,16,27,18.00
2014,05,21,16,28,17.90
2014,05,21,16,29,17.90
2014,05,21,16,30,17.80
2014,05,21,16,31,17.80
2014,05,21,16,32,17.80
2014,05,21,16,33,17.80
2014,05,21,16,34,17.80
2014,05,21,16,35,17.80
2014,05,21,16,36,17.80
2014,05,21,16,37,17.70
2014,05,21,16,38,17.70
2014,05,21,16,39,17.70
2014,05,21,16,40,17.70
2014,05,21,16,41,17.80
2014,05,21,16,42,17.80
2014,05,21,16,43,17.80
2014,05,21,16,44,17.80
2014,05,21,16,45,17.80
2014,05,21,16,46,17.80
2014,05,21,16,47,17.80
2014,05,21,16,48,17.80
2014,05,21,16,49,17.80
2014,05,21,16,50,17.90
2014,05,21,16,51,17.90
2014,05,21,16,52,17.90
2014,05,21,16,53,18.00
2014,05,21,16,54,18.10
2014,05,21,16,55,18.10
2014,05,21,16,56,18.20
2014,05,21,16,57,18.20
2014,05,21,16,58,18.10
2014,05,21,16,59,18.00
2014,05,21,17,00,18.00
2014,05,21,17,01,18.00
2014,05,21,17,02,17.90
2014,05,21,17,03,17.90
2014,05,21,17,04,17.80
2014,05,21,17,05,17.80
2014,05,21,17,06,17.70
2014,05,21,17,07,17.70
2014,05,21,17,08,17.70
2014,05,21,17,09,17.70
2014,05,21,17,10,17.70
2014,05,21,17,11,17.70
2014,05,21,17,12,17.80
2014,05,21,17,13,17.70
2014,05,21,17,14,17.70
2014,05,21,17,15,17.70
2014,05,21,17,16,17.80
2014,05,21,17,17,17.80
2014,05,21,17,18,17.80
2014,05,21,17,19,17.80